COSMOS 2522 (752) (42939 NORAD) Tracking and Keplerian Element Data

This shows tracking and keplerian element data for the satellite.

Feedback or suggestion? Click here.




ElementValue
Catalog42939
NameCOSMOS 2522 (752)
Epoch Orbit893
Epoch Day319.41769286
Epoch Year2018
RAAN287.1316
Inclination64.6009
Eccentricity0.0009936
Argument of Perigee250.2187
Mean Anonmoly316.7209
Mean Motion2.13101957
Decay Rate1E-08
L11 42939U 17055A 18319.41769286 .00000001 00000-0 00000+0 0 9990
L22 42939 64.6009 287.1316 0009936 250.2187 316.7209 2.13101957 8931

Live tracking and technical data element details for COSMOS 2522 (752) (NORAD 42939). COSMOS 2522 (752) can be tracked NOW for your location showing map with azimuth and elevation plus other details from your city location.

Track the satellite on the map from your city or location and see movement details for azimuth, elevation, latitude, longitude, range, height, and movement on the map or in text.







IsCatalogInMostPopularTable: catalog: 42939, numindb: 138
Update: records affected: 1



GetName: 42939 COSMOS 2522 (752)

Hit Count: updated at: Fri, 16 Nov 2018 11:28:06 GMT